Hinamatsuri

Hinamatsuri
Rating: 9.7 of 218652 person votes
Rank 471 /20,1487
Alternative: ヒナまつり;黑社会的超能力女儿;Hina Festival;Hina Matsuri;
Artists: Ohtake Masao
Author(s): Ohtake Masao
Genres: SupernaturalComedySeinenSlice of lifeFantasy
Release: 2015
Status: Ongoing
Summary:

From MangaHelpers:

One night, a strange object falls on the head of Nitta, a member of the yakuza. Inside the box is a strange young girl named Hina. She has tremendous supernatural powers, and Nitta finds himself reluctantly taking her in. Her powers can come in handy for his yakuza business, but he also runs the risk of her using them on him! Not to mention, if she doesn't use her powers, she will eventually go berserk and destroy everything around her. Nitta and Hina's strange life together is just beginning... [tethysdust]

vol.14 ch.72 : Tsuda Maski - A Record of His Escape and Growth 35 Pages 2017-11-23 17:08:59
vol.14 ch.71 : This Is How We Do It!! 38 Pages 2017-10-19 07:04:00
vol.14 ch.70 : Front-runner of dependents 31 Pages 2017-09-25 06:22:00
vol.13 ch.69.5 : The Importance Of Nitta Hina in This World 9 Pages 2017-10-11 06:19:00
vol.13 ch.69 : The class rep saw 10 Pages 2017-10-11 06:18:00
vol.13 ch.68 : Three year punch 49 Pages 2017-10-11 06:17:00
vol.13 ch.67 : Ramen Matsuri 30 Pages 2017-10-11 06:16:00
vol.13 ch.66 : A magnificent day for Nitta Hina 20 Pages 2017-10-11 06:15:00
vol.13 ch.65 : Invasion! Assassin from the west. 30 Pages 2017-10-11 06:14:00
vol.13 ch.64 : The Mishima family's situation 36 Pages 2017-10-11 06:13:00
vol.12 ch.63 : The monster has yet to wake 40 Pages 2017-02-18 08:14:00
vol.12 ch.62 : The Cart Rairaiken 30 Pages 2017-02-16 05:53:00
vol.12 ch.61.5 : Activate! Psychic Phenomenon Association. 9 Pages 2017-03-21 20:13:00
vol.12 ch.61 : The everyday life of the Superhuman Self Defense Japan branch 36 Pages 2017-02-15 02:47:00
vol.12 ch.60 : Cheer up, Hitoshi-kun 2 35 Pages 2017-01-10 22:46:00
vol.12 ch.59 : Monster vs. Monster 35 Pages 2016-12-17 04:50:00
vol.11 ch.58 : The Bonds Between the Three 39 Pages 2016-09-16 19:42:00
vol.11 ch.57 : No Passion, No Work 42 Pages 2016-09-16 00:19:00
vol.11 ch.56.5 : Everyone's own high school lives 5 Pages 2017-02-19 00:12:00
vol.11 ch.56 : An Average Day in Teihen Senior High 27 Pages 2016-08-28 04:41:00
vol.11 ch.55 : Nitta Yoshifumi ~The Sacrilegious Brute of a Man~ 39 Pages 2016-08-26 05:44:00
vol.11 ch.54 : Little Song, Once More 35 Pages 2016-08-26 04:35:00
vol.10 ch.53 : Succeeding the Taste 41 Pages 2016-08-23 01:21:00
vol.10 ch.52.5 : Hina's Feelings 6 Pages 2016-08-25 05:18:00
vol.10 ch.52 : Is There Anything You Want? 36 Pages 2016-01-26 16:13:00
vol.10 ch.51 : Shape Up with Superhuman Fitness! 30 Pages 2016-01-23 13:45:00
vol.10 ch.50.5 : Each Person's Whereabouts 6 Pages 2016-08-25 05:18:00
vol.10 ch.50 : Mishimas 37 Pages 2015-11-09 16:08:00
vol.10 ch.49.5 : The Road to Passing 4 Pages 2016-08-23 06:44:00
vol.9 ch.49 : This Is My High School Life 33 Pages 2015-11-08 16:47:00
vol.9 ch.48 : Indispensable Man 38 Pages 2015-09-05 23:16:00
vol.9 ch.47 : Rock 'N Roll x Illusion 42 Pages 2015-07-27 12:51:00
vol.9 ch.46.5 : The Pair Who Can't Meet Each Other 8 Pages 2016-08-23 07:15:00
vol.9 ch.46 : Yuki-Matsuri 38 Pages 2015-07-08 16:45:00
vol.9 ch.44.5 : The Pair Who Can't Meet Each Other 8 Pages 2016-08-23 15:14:00
vol.8 ch.45 : At the Boundary between Reality and Fantasy 32 Pages 2015-06-15 22:13:00
vol.8 ch.44 : A Woman Named Mishima Hitomi 23 Pages 2015-06-05 10:23:00
vol.8 ch.43 : China Cops 37 Pages 2015-04-21 03:58:00
vol.8 ch.42 : One-Day Trial Run at School 37 Pages 2015-03-09 05:53:00
vol.8 ch.41 : Mishima Hitomi's Short-Term Study-Abroad ~ The English Speaking C... 31 Pages 2015-03-02 23:02:00
vol.8 ch.40.5 : Housework Master 11 Pages 2017-02-18 08:13:00
vol.8 ch.40 : Housework Master 2 36 Pages 2014-10-27 10:45:00
vol.8 ch.39 28 Pages 2014-10-28 00:55:00
vol.7 ch.38 : Nitta And Hina 36 Pages 2014-08-01 09:45:00
vol.7 ch.37.5 : My Eyesight Has Started to Become a Little Worse Lately 5 Pages 2015-01-04 08:52:00
vol.7 ch.37 : Busted 27 Pages 2014-07-31 11:22:00
vol.7 ch.36 : A Case of Disloyal Succession 35 Pages 2014-07-30 11:27:00
vol.7 ch.35 : Her First Pocket Money. 34 Pages 2014-05-11 13:14:00
vol.7 ch.34.5 : For the Sake of My Beloved Dog, I Can't Quit My Job 9 Pages 2015-01-04 08:40:00
vol.7 ch.34 : Ikaruga Kei's Report On Hina's Behaviour 22 Pages 2014-03-29 12:25:00
vol.7 ch.33 : Cinderella 35 Pages 2014-03-23 17:11:00
vol.7 ch.32 : A Man Thirsting for Blood, Violence and Money 42 Pages 2014-01-15 15:08:00
vol.7 ch.31 : Like the Flow of the River 41 Pages 2013-12-12 17:37:00
vol.6 ch.32.5 : The Man Who Brought To Tears By His Syndicate, The Mass Media And... 4 Pages 2015-11-09 02:38:00
vol.6 ch.30 : Cheer Up, Hitoshi-kun! 25 Pages 2013-10-21 12:17:00
vol.6 ch.29.5 : Cry For Freedom 2 Pages 2015-11-09 02:38:00
vol.6 ch.29 : The Birth Of An Esper Girl 37 Pages 2013-09-23 06:18:00
vol.6 ch.28 : And Hina Acts as Usual 29 Pages 2013-08-22 00:00:00
vol.5 ch.27 : We Wanted to Be Called "Kidnappers..." 37 Pages 2013-07-02 12:58:00
vol.5 ch.26 : While Talking to Kidnappers 25 Pages 2013-05-21 00:42:00
vol.5 ch.25 : My Daughter, This Is Your Papa! 28 Pages 2013-05-20 08:44:00
vol.5 ch.24.5 : Welcome to Little Song, a Healing Place 5 Pages 2013-09-12 01:33:00
vol.5 ch.24 : There Is No Surprise, After All 34 Pages 2013-05-12 00:00:00
vol.5 ch.23 : Anzu, Kanbanshojyo, Begins Working 19 Pages 2013-05-04 03:46:00
vol.5 ch.22 : A Guide to Get Out of a Homeless Life 37 Pages 2013-05-04 00:00:00
vol.4 ch.21.5 : The Result of Putting a More Capable Subordinate in Charge 6 Pages 2013-09-12 00:33:00
vol.4 ch.21 : The Limits and Abuses of Education 39 Pages 2013-05-03 22:46:00
vol.4 ch.20 : Mika's Wild Adventure to Tokyo 17 Pages 2013-05-03 22:46:00
vol.4 ch.19 : Captain! Apparently We’ve Got a Serious Crime at Hand! 42 Pages 2013-05-03 00:00:00
vol.4 ch.18.5 : Extra 9 Pages 2013-05-01 00:00:00
vol.4 ch.18 : A Debt Collection Rhapsody 37 Pages 2013-05-22 00:00:00
vol.4 ch.17 : Worship the God of Rock´n Roll 35 Pages 2013-03-09 00:00:00
vol.3 ch.16.5 : Wish Them Happiness in Their Lives 4 Pages 2013-09-12 01:01:00
vol.3 ch.16 : This Is Actually Parents' Day 35 Pages 2013-01-23 00:00:00
vol.3 ch.15 : A Glorious Day of Nitta-san's Life 13 Pages 2013-01-23 00:00:00
vol.3 ch.14 : A Group of Three Women Can Outfox Minerva in Wisdom 44 Pages 2013-01-20 00:00:00
vol.3 ch.13.5 : Mister No. 72 9 Pages 2013-09-12 01:00:00
vol.3 ch.13 : Hitomi-chan, Good Work 18 Pages 2013-01-19 00:00:00
vol.3 ch.12 : Nitta-san's Father Is Dandy 48 Pages 2013-01-13 00:00:00
vol.3 ch.11 : A Middle School Student Bartender HITOMI! 23 Pages 2013-01-12 00:00:00
vol.2 ch.10.5 : No Matter What, You Should Teach Them Right 5 Pages 2013-01-13 00:00:00
vol.2 ch.10 : The Road to Dominion 31 Pages 2013-01-12 00:00:00
vol.2 ch.9 : Disowned Rock 'N Roll Fever 51 Pages 2013-01-12 00:00:00
vol.2 ch.8 : Nitta is in Big Trouble 23 Pages 2013-01-12 00:00:00
vol.2 ch.7 : A Beginner's Guide To A Homeless Life 33 Pages 2013-01-12 00:00:00
vol.2 ch.6 : This Is How They Fight with Psychokinesis! 45 Pages 2013-01-12 00:00:00
vol.1 ch.5.5 : Da Dan Dan Da Dan 7 Pages 2013-01-22 00:00:00
vol.1 ch.5 : It Is Not A Good Time For Fishing 44 Pages 2013-01-11 00:00:00
vol.1 ch.4.5 : This Tongue Tells Nothing Apart 5 Pages 2013-01-11 00:00:00
vol.1 ch.4 : Tonight, Saturday Night's Fever 41 Pages 2013-01-11 00:00:00
vol.1 ch.3 : Suddenly A Parent's Day 39 Pages 2013-01-10 00:00:00
vol.1 ch.2 : The World of Adults 34 Pages 2013-01-10 00:00:00
vol.1 ch.1 : A Psychokinetic Girl Appears! 34 Pages 2013-01-09 00:00:00
vol.12 ch.66 : A magnificent day for Nitta Hina 20 Pages 2017-06-10 15:48:00
vol.12 ch.65 : Invasion! Assassin from the west. 30 Pages 2017-04-19 18:48:00
vol.12 ch.64 v2 : The Mishima family's situation 36 Pages 2017-03-21 22:46:00
vol.12 ch.64 : The Mishima family's situation 36 Pages 2017-03-21 19:58:00
vol.12 ch.63 : The monster has yet to wake 40 Pages 2017-02-18 08:57:00
vol.12 ch.62 : The Cart Rairaiken 30 Pages 2017-02-16 06:41:00
vol.12 ch.61.5 v2 : Activate! Psychic Phenomenon Association. 9 Pages 2017-03-21 22:47:00
vol.12 ch.61.5 : Activate! Psychic Phenomenon Association. 9 Pages 2017-03-21 20:03:00
vol.12 ch.61 : The everyday life of the Superhuman Self Defense Japan branch 36 Pages 2017-02-15 01:37:00
vol.12 ch.60 : Cheer up, Hitoshi-kun 2 35 Pages 2017-01-10 22:55:00
vol.12 ch.59 : Monster vs. Monster 35 Pages 2016-12-17 04:07:00
vol.11 ch.58 : The Bonds Between the Three 39 Pages 2016-09-16 19:38:00
vol.11 ch.57 : No Passion, No Work 42 Pages 2016-09-15 21:38:00
vol.11 ch.56.5 : Everyone's own high school lives 5 Pages 2017-02-18 23:57:00
vol.11 ch.56 : An Average Day in Teihen Senior High 27 Pages 2016-09-01 22:44:00
vol.11 ch.55 : Nitta Yoshifumi ~The Sacrilegious Brute of a Man~ 39 Pages 2016-09-01 22:45:00
vol.11 ch.54 : Little Song, Once More 35 Pages 2016-09-01 22:45:00
vol.10 ch.53 : Succeeding the Taste 41 Pages 2016-09-01 22:46:00
vol.10 ch.52.5 : Hina's Feelings 6 Pages 2016-09-01 22:46:00
vol.10 ch.52 : Is There Anything You Want? 36 Pages 2016-01-26 23:08:00
vol.10 ch.51 : Shape Up with Superhuman Fitness! 30 Pages 2016-01-23 17:16:00
vol.10 ch.50.5 : Each Person's Whereabouts 6 Pages 2016-09-01 22:46:00
vol.10 ch.50 : Mishimas 37 Pages 2015-11-09 16:24:00
vol.10 ch.49.5 : The Road to Passing 4 Pages 2016-09-01 22:46:00
vol.9 ch.49 : This Is My High School Life 33 Pages 2015-11-08 16:13:00
vol.9 ch.48 : Indispensable Man 38 Pages 2015-11-08 16:15:00
vol.9 ch.47 : Rock 'N Roll x Illusion 42 Pages 2015-09-05 22:40:00
vol.9 ch.46.5 : We Are Alive 8 Pages 2016-09-01 22:46:00
vol.9 ch.46 : Yuki-Matsuri 38 Pages 2015-07-27 12:33:00
vol.9 ch.45 : At the Boundary between Reality and Fantasy 32 Pages 2015-06-15 22:18:00
vol.9 ch.44.5 : The Pair Who Can't Meet Each Other 8 Pages 2016-09-01 22:46:00
vol.8 ch.44 : A Woman Named Mishima Hitomi 23 Pages 2015-06-05 10:04:00
vol.8 ch.43 : China Cops 37 Pages 2015-04-21 03:48:00
vol.8 ch.42 : One-Day Trial Run at School 37 Pages 2015-03-09 05:37:00
vol.8 ch.41.5 : One woman at the bar (LOL) 5 Pages 2015-03-23 01:39:00
vol.8 ch.41 : Mishima Hitomi's Short-Term Study-Abroad ~ The English Speaking Class is Painful~ 31 Pages 2015-03-02 23:00:00
vol.8 ch.40.5 : Housework Master 11 Pages 2017-02-18 07:59:00
vol.8 ch.40 (v2) : Housework Master 2 35 Pages 2014-10-27 15:49:00
vol.7 ch.39v0 : Life Is A Survival 28 Pages 2014-09-04 12:06:00
vol.7 ch.38 : Nitta And Hina 36 Pages 2014-08-01 09:40:00
vol.7 ch.37.5 : My Eyesight Has Started to Become a Little Worse Lately 5 Pages 2015-01-01 21:41:00
vol.7 ch.37 : Busted 27 Pages 2014-07-31 11:03:00
vol.7 ch.36 : A Case of Disloyal Succession 35 Pages 2014-07-31 11:02:00
vol.7 ch.35 : (v3) Her First Pocket Money 33 Pages 2014-05-17 16:42:00
vol.7 ch.34.5 : For the Sake of My Beloved Dog, I Can't Quit My Job 9 Pages 2015-01-01 21:40:00
vol.7 ch.34 : Ikaruga Kei's Report On Hina's Behaviour. 22 Pages 2014-04-25 11:34:00
vol.7 ch.33 : Cinderella 36 Pages 2014-03-24 07:33:00
vol.6 ch.32.5 : The Man Who Was Brought To Tears By His Syndicate, The Mass Media And His Child 4 Pages 2014-04-03 07:44:00
vol.6 ch.32 : A man thirsting for blood, violence and money 42 Pages 2014-01-15 14:43:00
vol.6 ch.31.5 : Omnipotent Laborer 12 Pages 2014-08-14 09:26:00
vol.6 ch.31 : Like the flow of the river 41 Pages 2013-12-12 00:58:00
vol.6 ch.30 : Cheer Up, Hitoshi-kun! 25 Pages 2013-10-21 12:05:00
vol.6 ch.29.5 : Cry For Freedom 2 Pages 2014-03-29 13:46:00
vol.6 ch.29 : The Birth Of An Esper Girl 37 Pages 2013-09-23 06:11:00
vol.6 ch.28 : And Hina Acts As Usual 29 Pages 2013-08-21 13:34:00
vol.6 ch.27.5 : Then, Nitta Yoshifumi! Farewell To Behind The Bars! 5 Pages 2014-04-03 07:44:00
vol.5 ch.27v0 : We Wanted to Be Called Kidnappers... 37 Pages 2013-07-02 08:19:00
vol.5 ch.26v0 : Please Call Us ''Kidnappers'' 25 Pages 2013-05-20 12:31:00
vol.5 ch.25v0 : My Daughter,This Is Your Papa! 28 Pages 2013-05-19 07:08:00
vol.5 ch.24v0 : There Is No Surprise, After All. 34 Pages 2013-05-04 13:45:00
vol.5 ch.24.5 : Welcome To Little Song, A Healing Place 5 Pages 2013-09-16 06:12:00
vol.5 ch.23v0 : Anzu, Kanban Shoujo, Begins Working 19 Pages 2013-05-04 01:45:00
vol.5 ch.22v0 : A Guide to Get Out of A Homeless Life 37 Pages 2013-05-03 18:45:00
vol.4 ch.21.5v0 : The Result of Putting A More Capable Subordinate in Charge 6 Pages 2013-05-04 12:45:00
vol.4 ch.21 : The Limits and Abuses of Education 40 Pages 2014-08-08 11:25:00
vol.4 ch.20v0 : Mika's Wild Adventure to Tokyo 17 Pages 2013-05-02 18:45:00
vol.4 ch.19v0 : Captain! Apparently We’ve Got A Serious Crime at Hand! 42 Pages 2013-05-02 18:45:00
vol.4 ch.18v2 : A Debt Collection Rhapsody 38 Pages 2014-10-20 21:51:00
vol.4 ch.18.5 : A Magic Spell That... 9 Pages 2013-04-30 18:45:00
vol.4 ch.17v2 : Worship the God of Rock 'n' Roll 37 Pages 2014-10-20 21:31:00
vol.4 ch.17 : Worship the God of Rock´n Roll 35 Pages 2013-03-08 14:15:00
vol.3 ch.16v2 : This Is A Real Parent´s Day! 35 Pages 2013-01-29 09:12:00
vol.3 ch.16.6 : Extra 6 2 Pages 2014-08-15 02:30:00
vol.3 ch.16.5 : Epilogue: Wish Them Happiness in Their Lives 4 Pages 2013-04-06 18:45:00
vol.3 ch.16 : This is Actually Parents' Day 34 Pages 2014-06-19 09:12:00
vol.3 ch.15 : Nitta-san's Glorious Day. 15 Pages 2014-04-21 15:47:00
vol.3 ch.14v2 : A Group of Three Women Can Outfox Minerva in Wisdom 46 Pages 2013-01-23 18:54:00
vol.3 ch.14 : If Three Heads Are Put Together, They Can Outsmart Manjusri 46 Pages 2014-06-19 09:44:00
vol.3 ch.13.5 : Mister No. 72 9 Pages 2013-05-02 18:45:00
vol.3 ch.13 : Good Work, Hitomi-chan. 18 Pages 2014-03-29 08:52:00
vol.3 ch.12 : Nitta-san's Father Is Dandy 49 Pages 2014-05-17 16:53:00
vol.3 ch.11 : The Middle School Student Bartender HITOMI! 27 Pages 2013-12-30 12:31:00
vol.02 ch.09 : Disowned Rock 'N Roll Fever 53 Pages 2014-01-10 14:10:00
vol.2 ch.10.5 : No Matter What, You Should Teach Them Right 5 Pages 2013-01-13 05:51:00
vol.2 ch.10 : The Road To Dominion 32 Pages 2014-03-09 17:39:00
vol.2 ch.8 : Nitta is in Trouble 23 Pages 2013-10-14 17:25:00
vol.2 ch.7 : A Beginner's Guide To A Homeless Life 33 Pages 2013-10-03 14:59:00
vol.2 ch.6 : This Is How They Fight With Psychokinesis! 46 Pages 2013-09-16 06:12:00
vol.1 ch.5.5 : Dadan Dan Dadan 8 Pages 2013-09-05 14:22:00
vol.1 ch.5 : It's Not A Good Day To Go Fishing 45 Pages 2013-08-28 20:39:00
vol.1 ch.4.5 : This Tongue Can't Tell The Difference 5 Pages 2013-08-25 12:50:00
vol.1 ch.4 : It's Saturday Night's Fever 40 Pages 2013-08-25 08:32:00
vol.1 ch.3 : Suddenly Parents' Day 40 Pages 2013-08-22 09:29:00
vol.1 ch.2 : The World of Adults 38 Pages 2013-02-07 20:03:00
vol.1 ch.1 : A Psychokinetic Girl Appears! 40 Pages 2013-01-22 19:12:00
ch.72 35 Pages 2017-11-25 05:01:00
ch.71 38 Pages 2017-10-19 09:00:00
ch.70 31 Pages 2017-10-19 08:59:00
ch.69 9 Pages 2017-08-22 09:26:00
ch.68 48 Pages 2017-08-22 09:24:00
ch.67 29 Pages 2017-08-22 09:23:00
ch.66 20 Pages 2017-06-10 16:31:00
ch.64 36 Pages 2017-04-20 00:54:00
ch.63 40 Pages 2017-02-18 10:41:00
ch.62 30 Pages 2017-02-16 12:16:00
ch.61 9 Pages 2017-02-15 01:59:00
ch.60 35 Pages 2017-01-11 08:57:00
ch.59 35 Pages 2016-12-17 11:43:00
ch.58 39 Pages 2016-09-17 09:33:00
ch.57 : No Passion, No Work 42 Pages 2016-09-15 22:26:00
ch.56 27 Pages 2016-08-28 10:36:00
ch.55 : Nitta Yoshifumi ~The Sacrilegious Brute of a Man~ 39 Pages 2016-08-26 10:33:00
ch.54 : Little Song, Once More 35 Pages 2016-08-26 10:33:00
ch.53 41 Pages 2016-08-23 08:15:00
ch.52 36 Pages 2016-01-26 16:41:00
ch.51 : Shape Up with Superhuman Fitness! 30 Pages 2016-01-23 14:39:00
ch.50 : Mishimas 37 Pages 2015-11-09 16:46:00
ch.49 : This Is My High School Life 33 Pages 2015-11-08 17:09:00
ch.48 : Indispensable Man 38 Pages 2015-09-05 23:53:00
ch.47 : Rock 'N Roll x Illusion 42 Pages 2015-07-28 08:38:00
ch.46 : Yuki-Matsuri 38 Pages 2015-07-28 08:37:00
ch.45 : At the Boundary between Reality and Fantasy 32 Pages 2015-06-15 22:35:00
ch.44 : A Woman Named Mishima Hitomi 23 Pages 2015-06-05 11:37:00
ch.43 : China Cops 37 Pages 2015-06-05 11:36:00
ch.42 : One-Day Trial Run at School 37 Pages 2015-03-09 08:13:00
ch.41 : Mishima Hitomi's Short-Term Study-Abroad ~ The English Speaking Class is Painful 31 Pages 2015-03-02 23:52:00
ch.40 : Housework Master 002 36 Pages 2014-10-27 10:43:00
ch.39 : Life Is A Survival 28 Pages 2014-10-27 10:43:00
ch.38 : Nitta And Hina 36 Pages 2014-08-09 21:13:00
ch.37 : Busted 27 Pages 2014-08-09 21:12:00
ch.36 : A Case of Disloyal Succession 35 Pages 2014-08-09 21:12:00
ch.35 : Her First Pocket Money. 34 Pages 2014-05-11 13:41:00
ch.34 : Good Work Hitomi Chan 18 Pages 2014-03-29 20:20:00
ch.33 : Cindirella 35 Pages 2014-03-23 00:00:00
ch.32 v2 : A man thirsting for blood, violence and money 42 Pages 2014-01-15 00:00:00
ch.32 : A man thirsting for blood, violence and money 42 Pages 2014-01-15 00:00:00
ch.31 : Like the Flow of the River 41 Pages 2013-12-12 00:00:00
ch.30 : Cheer Up, Hitoshi-kun! 25 Pages 2013-10-21 00:00:00
ch.29 : The Birth Of An Esper Girl 37 Pages 2013-10-21 00:00:00
ch.28 : And Hina Acts As Usual 29 Pages 2013-08-22 00:00:00
ch.27 : We Wanted to Be Called Kidnappers 37 Pages 2013-07-02 00:00:00
ch.26 : While Talking to Kidnappers 25 Pages 2013-05-20 00:00:00
ch.25 28 Pages 2013-05-19 00:00:00
ch.24 : There Is No Surprise, After All 34 Pages 2013-05-19 00:00:00
ch.23 : Anzu, Kanbanshojyo, Begins Working 18 Pages 2013-05-19 00:00:00
ch.22 : A Guide to Get Out of A Homeless Life 37 Pages 2013-05-03 00:00:00
ch.21 : The Limits and Abuses of Education 39 Pages 2013-05-03 00:00:00
ch.20 : Mika's Wild Adventure to Tokyo 17 Pages 2013-05-03 00:00:00
ch.19 : Captain! Apparently We’ve Got A Serious Crime at Hand! 42 Pages 2013-05-03 00:00:00
ch.18 : 18.5 9 Pages 2013-05-03 00:00:00
ch.17 : Worship the God of Rock´n Roll 35 Pages 2013-05-03 00:00:00
ch.16 : This Is A Real Parent´s Day! 39 Pages 2013-05-03 00:00:00
ch.15 : A Glorious Day of Nitta-san's Life 13 Pages 2013-05-03 00:00:00
ch.14 : A Group of Three Women Can Outfox Minerva in Wisdom 46 Pages 2013-05-03 00:00:00
ch.13 : Hitomi-chan, Good Work 27 Pages 2013-05-03 00:00:00
ch.12 : Nitta-san's Father Is Dandy 48 Pages 2013-05-03 00:00:00
ch.11 : A Middle School Student Bartender HITOMI! 24 Pages 2013-05-03 00:00:00
ch.10 : The Road To Dominion 36 Pages 2013-05-03 00:00:00
ch.9 : Disowned Rock 'N Roll Fever 51 Pages 2013-05-03 00:00:00
ch.8 : Nitta Is In Big Trouble 23 Pages 2013-05-03 00:00:00
ch.7 : A Beginner's Guide To A Homeless Life 33 Pages 2013-05-03 00:00:00
ch.6 : This Is How They Fight with Psychokinesis! 45 Pages 2013-05-03 00:00:00
ch.5 : It Is Not A Good Time For Fishing 51 Pages 2013-05-03 00:00:00
ch.4 : Tonight, Saturday Night's Fever 44 Pages 2013-05-03 00:00:00
ch.3 : Suddenly A Parent's Day 39 Pages 2013-05-03 00:00:00
ch.2 : The World of Adults 38 Pages 2013-05-03 00:00:00
ch.1 : A Psychokinetic Girl Appears! 40 Pages 2013-05-03 00:00:00
ch.71 : This Is How We Do It!! 38 Pages 2017-10-19 07:03:00
ch.70 : Front-runner of dependents 31 Pages 2017-09-25 06:51:00
ch.69.5 : The Importance Of Nitta Hina in This World 9 Pages 2017-10-11 08:35:00
ch.69 10 Pages 2017-08-22 02:32:00
ch.68 : Three year punch 49 Pages 2017-08-22 02:31:00
ch.67 30 Pages 2017-07-11 05:38:00
ch.66 : A magnificent day for Nitta Hina 20 Pages 2017-06-10 17:04:00
ch.65 : Invasion! Assassin from the west. 30 Pages 2017-04-19 19:20:00
ch.64 : The Mishima family's situation 36 Pages 2017-03-21 20:20:00
ch.63 : The monster has yet to wake 40 Pages 2017-02-18 09:17:00
ch.62 : The Cart Rairaiken 30 Pages 2017-02-16 06:03:00
ch.61.5 : Activate! Psychic Phenomenon Association. 9 Pages 2017-03-21 20:18:00
ch.61 : The everyday life of the Superhuman Self Defense Japan branch 36 Pages 2017-02-15 01:49:00
ch.60 : Cheer up, Hitoshi-kun 2 35 Pages 2017-01-10 22:50:00
ch.59 : Monster vs. Monster 35 Pages 2016-12-17 04:55:00
ch.58 : The Bonds Between the Three 39 Pages 2016-09-16 21:14:00
ch.57 : No Passion, No Work 42 Pages 2016-09-16 00:09:00
ch.56.5 : Everyone's own high school lives 5 Pages 2017-02-19 00:21:00
ch.56 : An Average Day in Teihen Senior High 27 Pages 2016-08-28 03:51:00
ch.55 : Nitta Yoshifumi ~The Sacrilegious Brute of a Man~ 39 Pages 2016-08-26 06:14:00
ch.54 35 Pages 2016-08-26 04:26:00
ch.53 : Succeeding the Taste 41 Pages 2016-08-23 05:51:00
ch.52.5 : Hina's Feelings 6 Pages 2016-08-25 06:06:00
ch.52 : Is There Anything You Want? 36 Pages 2016-01-26 17:34:00
ch.51 : Shape Up with Superhuman Fitness! 30 Pages 2016-01-23 13:53:00
ch.50.5 : Each Person's Whereabouts 6 Pages 2016-08-25 06:06:00
ch.50 : Mishimas 37 Pages 2015-11-09 19:09:00
ch.49.5 : The Road to Passing 4 Pages 2016-08-23 05:51:00
ch.49 : This Is My High School Life 33 Pages 2015-11-09 19:08:00
ch.48 : Indispensable Man 38 Pages 2015-11-08 17:13:00
ch.47 : Rock 'N Roll x Illusion 42 Pages 2015-09-05 23:24:00
ch.46.5 : The Pair Who Can't Meet Each Other 8 Pages 2016-08-23 06:51:00
ch.46 : Yuki-Matsuri 38 Pages 2015-07-27 12:55:00
ch.45 : At the Boundary between Reality and Fantasy 32 Pages 2015-06-15 22:25:00
ch.44.5 : The Pair Who Can't Meet Each Other 8 Pages 2016-08-23 17:56:00
ch.44 : A Woman Named Mishima Hitomi 23 Pages 2015-06-05 10:57:00
ch.43 : China Cops 37 Pages 2015-04-21 15:49:00
ch.42 : One-Day Trial Run at School 37 Pages 2015-05-03 19:41:00
ch.41.5 : One woman at the bar (LOL) 5 Pages 2015-05-03 19:41:00
ch.41 : Mishima Hitomi's Short-Term Study-Abroad ~ The English Speaking Class is Painful~ 31 Pages 2015-05-03 19:40:00
ch.40.5 : Housework Master 11 Pages 2017-02-18 09:16:00
ch.40 : Housework Master 2 36 Pages 2015-05-03 19:39:00
ch.39 : Life Is A Survival 28 Pages 2015-05-03 19:38:00
ch.38 : Nitta And Hina 36 Pages 2015-05-03 19:37:00
ch.37.5 : My Eyesight Has Started to Become a Little Worse Lately 5 Pages 2015-05-03 19:37:00
ch.37 : Busted 27 Pages 2015-05-03 19:36:00
ch.36 : A Case of Disloyal Succession 35 Pages 2015-05-03 19:35:00
ch.35 : Her First Pocket Money. 34 Pages 2015-05-03 19:34:00
ch.34.5 : For the Sake of My Beloved Dog, I Can't Quit My Job 9 Pages 2015-05-03 19:33:00
ch.34 : Ikaruga Kei's Report On Hina's Behaviour. 22 Pages 2015-05-03 19:33:00
ch.33 : Cinderella 35 Pages 2015-05-03 19:32:00
ch.32.5 : The Man Who Brought To Tears By His Syndicate, The Mass Media And His Child 4 Pages 2015-05-03 19:31:00
ch.32 : A man thirsting for blood, violence and money 42 Pages 2015-05-03 19:30:00
ch.31 : Like the flow of the river 41 Pages 2015-05-03 19:29:00
ch.30 : Cheer Up, Hitoshi-kun! 25 Pages 2015-05-03 19:28:00
ch.29.5 : Cry For Freedom 2 Pages 2015-05-03 19:27:00
ch.29 : The Birth Of An Esper Girl 37 Pages 2015-05-03 19:26:00
ch.28 : And Hina Acts As Usual 29 Pages 2015-05-03 19:25:00
ch.27 : We Wanted to Be Called Kidnappers... 37 Pages 2015-05-03 19:24:00
ch.26 : While Talking to Kidnappers 25 Pages 2015-05-03 19:23:00
ch.25 : My Daughter,This Is Your Papa! 28 Pages 2015-05-03 19:22:00
ch.24.5 : Welcome To Little Song, A Healing Place 5 Pages 2015-05-03 19:22:00
ch.24 : There Is No Surprise, After All. 34 Pages 2015-05-03 19:21:00
ch.23 : Anzu, Kanbanshojyo, Begins Working 19 Pages 2015-05-03 19:20:00
ch.22 : A Guide to Get Out of A Homeless Life 37 Pages 2015-05-03 19:19:00
ch.21.5 : The Result of Putting A More Capable Subordinate in Charge 6 Pages 2015-05-03 19:19:00
ch.21 : The Limits and Abuses of Education 39 Pages 2015-05-03 19:18:00
ch.20 : Mika's Wild Adventure to Tokyo 17 Pages 2015-05-03 19:17:00
ch.19 : Captain! Apparently We’ve Got A Serious Crime at Hand! 42 Pages 2015-05-03 19:16:00
ch.18.5 : A Magic Spell That... 9 Pages 2015-05-03 19:16:00
ch.18 : A Debt Collection Rhapsody 37 Pages 2015-05-03 19:15:00
ch.17 : Worship the God of Rock´n Roll 35 Pages 2015-05-03 19:13:00
ch.16.5 : Epilogue: Wish Them Happiness in Their Lives 4 Pages 2015-05-03 19:13:00
ch.16 : This Is Actually Parents' Day 35 Pages 2015-05-03 19:12:00
ch.15 : Nitta's Brilliant Day 13 Pages 2015-05-03 19:12:00
ch.14 : A Group of Three Women Can Outfox Minerva in Wisdom 44 Pages 2015-05-03 19:10:00
ch.13.5 : Mister No. 72 9 Pages 2015-05-03 19:10:00
ch.13 : Hitomi-chan, Good Work 18 Pages 2015-05-03 19:09:00
ch.12 : Nitta-san's Father Is Dandy 48 Pages 2015-05-03 19:08:00
ch.11 : A Middle School Student Bartender HITOMI! 23 Pages 2015-05-03 19:07:00
ch.10.5 : No Matter What, You Should Teach Them Right 5 Pages 2015-05-03 19:07:00
ch.10 : The Road To Dominion 31 Pages 2015-05-03 19:06:00
ch.9 : Disowned Rock 'N Roll 51 Pages 2015-05-03 19:04:00
ch.8 : Nitta Is In Big Trouble 23 Pages 2015-05-03 19:04:00
ch.7 : A Beginner's Guide To A Homeless Life 33 Pages 2015-05-03 19:03:00
ch.6 : This Is How They Fight with Psychokinesis! 45 Pages 2015-05-03 19:01:00
ch.5.5 : Da Dan Dan Da Dan 7 Pages 2015-05-03 19:01:00
ch.5 : It Is Not A Good Time For Fishing 44 Pages 2015-05-03 19:00:00
ch.4.5 : This Tongue Tells Nothing Apart 5 Pages 2015-05-03 18:59:00
ch.4 : Tonight, Saturday Night's Fever 41 Pages 2015-05-03 18:58:00
ch.3 : Suddenly A Parent's Day 39 Pages 2015-05-03 18:57:00
ch.2 : The World of Adults 34 Pages 2015-05-03 18:56:00
ch.1 : A Psychokinetic Girl Appears! 34 Pages 2015-05-03 18:55:00

RELATIVE MANGA